[[{"header":{"parameterUnit":"m.s-1","parameterCategory":1,"la1":30.2991,"la2":30.254,"lo1":-89.0895,"lo2":-89.0444,"dy":0.0017,"dx":0.0017,"nx":28,"ny":28,"refTime":"2024-03-22T03:00:00:Z","depth":0,"parameterNumber":2,"parameterNumberName":"U-component_of_WINDS"},"data":[0,0,0,0,0,0,0,0,0,0,0,0,0,0,0,0,0,0,0,0,0,0,0,0,0,0,0,0,0,0,0,0,0,0,0,0,0,0,0,0,0,0,0,0,0,0,0,0,0,0,0,0,0,0,0,0,0,0,-1.2801,-1.2802,0,-1.2863,-1.2864,-1.2865,-1.2849,-1.2847,-1.2846,-1.2845,-1.291,-1.2913,-1.2916,0,0,0,0,0,0,0,0,0,0,0,0,0,-1.2671,-1.2674,-1.2801,-1.2802,-1.2803,-1.2863,-1.2864,-1.2865,-1.2849,-1.2847,-1.2846,-1.2844,-1.2909,-1.2912,-1.2916,0,0,0,0,0,0,0,0,0,0,0,0,0,-1.273,-1.2675,-1.2801,-1.2802,-1.2803,-1.2863,-1.2864,-1.2865,-1.2849,-1.2847,-1.2845,-1.2844,-1.2908,-1.2912,-1.2916,-1.298,0,0,-1.293,-1.2931,0,0,0,0,0,0,0,0,-1.2727,-1.2735,-1.2801,-1.2802,-1.2803,-1.2846,-1.2842,-1.2904,-1.285,-1.2832,-1.2845,-1.2843,-1.289,-1.2896,-1.2912,-1.2983,-1.2986,-1.293,-1.2933,-1.2934,-1.2936,0,0,0,0,0,0,0,-1.2723,-1.2732,-1.2826,-1.2802,-1.2803,-1.28,-1.2806,-1.2854,-1.2871,-1.2833,-1.2832,-1.2839,-1.2891,-1.2908,-1.2913,-1.2987,-1.293,-1.2934,-1.2936,-1.2938,-1.3114,-1.3116,0,0,0,0,0,0,-1.2718,-1.2729,-1.2824,-1.2828,-1.276,-1.2804,-1.2811,-1.2834,-1.287,-1.2874,-1.2841,-1.2839,-1.2901,-1.2908,-1.2915,-1.2992,-1.2934,-1.2938,-1.2941,-1.3112,-1.3114,-1.3117,0,0,0,0,0,0,-1.2715,-1.2726,-1.2821,-1.2778,-1.279,-1.2808,-1.2834,-1.2836,-1.2853,-1.2876,-1.2879,-1.2855,-1.29,-1.2909,-1.2964,-1.2994,-1.294,-1.2944,-1.3109,-1.3113,-1.3116,-1.3147,0,0,0,0,0,0,-1.2711,-1.2725,-1.2749,-1.2779,-1.2792,-1.2868,-1.2836,-1.2839,-1.2861,-1.2858,-1.289,-1.2894,-1.2899,-1.2958,-1.2968,-1.2999,-1.2948,-1.3107,-1.3111,-1.3115,-1.3143,-1.3151,-1.3157,0,0,0,0,0,-1.2707,-1.2756,-1.275,-1.2762,-1.2822,-1.287,-1.2878,-1.2883,-1.2863,-1.2888,-1.2902,-1.2893,-1.2989,-1.2963,-1.2975,-1.3008,-1.3105,-1.311,-1.3114,-1.314,-1.3149,-1.3157,0,0,0,0,0,0,-1.273,-1.276,-1.2754,-1.2814,-1.284,-1.2867,-1.2898,-1.2892,-1.2924,-1.2921,-1.2926,-1.2933,-1.2989,-1.3004,-1.2975,-1.3072,-1.3044,-1.3052,-1.306,-1.3069,-1.3076,-1.3071,-1.2951,0,0,0,0,0,-1.2742,-1.2777,-1.2802,-1.2852,-1.2865,-1.288,-1.2901,-1.2902,-1.2929,-1.294,-1.2959,-1.2986,-1.3023,-1.3047,-1.3081,-1.3145,-1.3153,-1.3174,-1.3181,-1.3187,-1.3193,-1.3228,-1.3238,-1.3132,-1.3132,-1.3132,0,0,-1.2767,-1.2788,-1.281,-1.2857,-1.2877,-1.2915,-1.2889,-1.293,-1.2958,-1.2947,-1.2999,-1.3014,-1.3045,-1.3105,-1.3132,-1.3119,-1.3224,-1.3193,-1.3197,-1.32,-1.3234,-1.3244,-1.3253,-1.3135,-1.3135,-1.3134,0,0,-1.2832,-1.2851,-1.2895,-1.2916,-1.2947,-1.2956,-1.2967,-1.2996,-1.3005,-1.3058,-1.305,-1.3084,-1.3147,-1.317,-1.3189,-1.3264,-1.3256,-1.3275,-1.3311,-1.3346,-1.3354,-1.3362,-1.3389,-1.3398,-1.3281,-1.3281,-1.3281,0,-1.2859,-1.2915,-1.2919,-1.2961,-1.2982,-1.2973,-1.3019,-1.3039,-1.308,-1.3095,-1.308,-1.3159,-1.3179,-1.3244,-1.3262,-1.3279,-1.3292,-1.3271,-1.3353,-1.336,-1.3367,-1.3393,-1.3403,-1.3283,-1.3283,-1.3283,-1.3283,0,-1.2948,-1.2986,-1.3019,-1.3058,-1.3083,-1.3126,-1.3138,-1.3163,-1.3163,-1.3174,-1.3229,-1.3252,-1.3292,-1.3308,-1.3308,-1.3374,-1.3365,-1.3351,-1.3324,-1.3379,-1.3404,-1.3414,-1.3286,-1.3286,-1.3285,-1.3285,0,0,-1.3028,-1.3069,-1.3081,-1.3099,-1.3133,-1.3163,-1.3207,-1.3245,-1.3267,-1.3296,-1.3333,-1.3387,-1.3374,-1.3397,-1.34,-1.343,-1.3488,-1.3413,-1.3414,-1.3426,-1.3563,-1.3573,-1.3584,-1.3484,-1.3486,-1.3487,-1.356,0,-1.3096,-1.3172,-1.3177,-1.3246,-1.3282,-1.3275,-1.3313,-1.3338,-1.335,-1.3383,-1.3397,-1.3435,-1.3416,-1.3429,-1.3459,-1.3475,-1.3516,-1.347,-1.3519,-1.3521,-1.3511,-1.3597,-1.3607,-1.3675,-1.357,-1.3571,-1.3573,0,-1.3186,-1.3217,-1.3289,-1.3318,-1.3333,-1.3367,-1.3403,-1.3435,-1.3464,-1.3471,-1.3496,-1.3495,-1.3541,-1.3512,-1.3575,-1.3544,-1.3564,-1.3575,-1.3578,-1.3583,-1.355,-1.3604,-1.3696,-1.3707,-1.3588,-1.3586,-1.3585,0,-1.3238,-1.3298,-1.3349,-1.3364,-1.3399,-1.3423,-1.3439,-1.3466,-1.3489,-1.3521,-1.3536,-1.3574,-1.3594,-1.3623,-1.3633,-1.3611,-1.3696,-1.3668,-1.3703,-1.3703,-1.3721,-1.372,-1.3819,-1.3735,-1.3735,-1.3735,-1.3734,0,-1.3313,-1.3358,-1.3373,-1.3404,-1.3454,-1.346,-1.351,-1.3524,-1.3548,-1.3583,-1.358,-1.3613,-1.3623,-1.3658,-1.3666,-1.3717,-1.3727,-1.3734,-1.3735,-1.3734,-1.3733,-1.3748,-1.3743,-1.3737,-1.3737,-1.3736,-1.3736,0,-1.338,-1.3391,-1.3446,-1.3475,-1.3483,-1.3519,-1.3544,-1.3575,-1.3586,-1.363,-1.3641,-1.3659,-1.3701,-1.3713,-1.3763,-1.3768,-1.3829,-1.3826,-1.3819,-1.3819,-1.3854,-1.385,-1.3965,-1.3981,-1.3886,-1.3887,-1.3888,0,-1.3427,-1.3461,-1.3493,-1.3516,-1.3533,-1.357,-1.3593,-1.3601,-1.3625,-1.3661,-1.3688,-1.3728,-1.3761,-1.3828,-1.3846,-1.3884,-1.3883,-1.392,-1.3888,-1.3886,-1.3883,-1.3881,-1.3885,-1.3926,-1.3927,-1.3928,-1.3929,0,-1.351,-1.3515,-1.3548,-1.3584,-1.3612,-1.3641,-1.3668,-1.3688,-1.3699,-1.3728,-1.3769,-1.3795,-1.3845,-1.3886,-1.3925,-1.3942,-1.3938,-1.3938,-1.3949,-1.3948,-1.3942,-1.3946,-1.3835,-1.3936,-1.3935,-1.3934,-1.3934,-1.3934,-1.3569,-1.3599,-1.3627,-1.3664,-1.3686,-1.3712,-1.3742,-1.3758,-1.3792,-1.3833,-1.3836,-1.3882,-1.3911,-1.3962,-1.3982,-1.4018,-1.4007,-1.4022,-1.4026,-1.403,-1.4032,-1.3937,-1.4025,-1.4025,-1.4025,-1.4025,-1.4025,0,-1.3652,-1.367,-1.3704,-1.3743,-1.3773,-1.3765,-1.3796,-1.3822,-1.3861,-1.3888,-1.3921,-1.3969,-1.4009,-1.403,-1.407,-1.4095,-1.4094,-1.4105,-1.4103,-1.4108,-1.404,-1.4027,-1.4105,-1.4105,-1.4105,-1.4105,-1.4105,-1.4105,-1.3699,-1.375,-1.3757,-1.3819,-1.3836,-1.388,-1.3898,-1.3922,-1.3944,-1.3998,-1.4031,-1.4044,-1.4069,-1.4111,-1.4147,-1.4153,-1.4168,-1.418,-1.4185,-1.4121,-1.4112,-1.4105,-1.4092,-1.4183,-1.4183,-1.425,-1.425,-1.4251]},{"header":{"parameterUnit":"m.s-1","parameterCategory":1,"la1":30.2991,"la2":30.254,"lo1":-89.0895,"lo2":-89.0444,"dy":0.0017,"dx":0.0017,"nx":28,"ny":28,"refTime":"2024-03-22T03:00:00:Z","depth":0,"parameterNumber":3,"parameterNumberName":"V-component_of_WINDS"},"data":[0,0,0,0,0,0,0,0,0,0,0,0,0,0,0,0,0,0,0,0,0,0,0,0,0,0,0,0,0,0,0,0,0,0,0,0,0,0,0,0,0,0,0,0,0,0,0,0,0,0,0,0,0,0,0,0,0,0,0.3726,0.3725,0,0.3587,0.3586,0.3584,0.3519,0.3519,0.3519,0.352,0.3374,0.3371,0.3367,0,0,0,0,0,0,0,0,0,0,0,0,0,0.3933,0.3929,0.3726,0.3725,0.3723,0.3588,0.3586,0.3584,0.3519,0.3519,0.3519,0.352,0.3376,0.3371,0.3366,0,0,0,0,0,0,0,0,0,0,0,0,0,0.3824,0.3928,0.3727,0.3674,0.3668,0.3588,0.3586,0.3583,0.3519,0.3519,0.352,0.352,0.3377,0.3371,0.3366,0.3326,0,0,0.3347,0.3345,0,0,0,0,0,0,0,0,0.383,0.3816,0.3684,0.3678,0.3671,0.3571,0.3605,0.3497,0.3519,0.3576,0.352,0.352,0.3439,0.3428,0.3402,0.3319,0.3313,0.3347,0.3343,0.3341,0.3339,0,0,0,0,0,0,0,0.3837,0.3822,0.3671,0.3682,0.3674,0.3657,0.3642,0.3584,0.3508,0.3571,0.3566,0.355,0.3436,0.3408,0.3398,0.3311,0.3347,0.3342,0.3338,0.3336,0.3187,0.3186,0,0,0,0,0,0,0.3854,0.3828,0.3676,0.3667,0.3753,0.3653,0.3636,0.3603,0.3509,0.3495,0.355,0.3548,0.3418,0.3405,0.3393,0.3339,0.3341,0.3335,0.3332,0.3187,0.3187,0.3186,0,0,0,0,0,0,0.3859,0.3841,0.3681,0.3746,0.3725,0.3649,0.3613,0.36,0.3572,0.3493,0.3479,0.3536,0.3417,0.3401,0.3343,0.3333,0.3333,0.3327,0.3188,0.3187,0.3186,0.3232,0,0,0,0,0,0,0.3865,0.3843,0.3828,0.3746,0.3721,0.3635,0.3612,0.3597,0.3562,0.3557,0.3476,0.3463,0.3416,0.3352,0.3337,0.3325,0.3322,0.3188,0.3187,0.3187,0.3231,0.3233,0.3235,0,0,0,0,0,0.3872,0.3846,0.3827,0.3809,0.3701,0.3634,0.362,0.3568,0.3562,0.3545,0.3495,0.3465,0.3337,0.3347,0.3329,0.3315,0.3188,0.3188,0.3187,0.323,0.3233,0.3235,0,0,0,0,0,0,0.3927,0.3834,0.3813,0.3759,0.3705,0.3624,0.3601,0.3573,0.3519,0.3517,0.3454,0.3436,0.3383,0.3343,0.3356,0.3271,0.326,0.3255,0.3299,0.3301,0.3303,0.3313,0.3318,0,0,0,0,0,0.3933,0.3888,0.3809,0.3769,0.3743,0.3677,0.3646,0.3611,0.3552,0.3529,0.3474,0.3417,0.3364,0.333,0.3277,0.3225,0.3206,0.3207,0.3209,0.3211,0.3207,0.3176,0.3175,0.3183,0.3183,0.3183,0,0,0.3945,0.3888,0.3863,0.3778,0.3733,0.3686,0.3658,0.361,0.3575,0.3521,0.3463,0.3421,0.3353,0.3298,0.3271,0.3263,0.3201,0.321,0.3212,0.3207,0.3175,0.3175,0.3174,0.3183,0.3183,0.3183,0,0,0.3942,0.3895,0.3857,0.3811,0.3742,0.3699,0.369,0.3612,0.3582,0.3523,0.3482,0.3438,0.3348,0.3301,0.3266,0.3245,0.3216,0.323,0.3239,0.321,0.3209,0.3208,0.32,0.3198,0.3227,0.3227,0.3227,0,0.3964,0.3894,0.384,0.3794,0.3758,0.3708,0.3668,0.3626,0.3543,0.3519,0.3512,0.3397,0.3348,0.3281,0.3276,0.3249,0.3236,0.3238,0.3214,0.3212,0.3211,0.3202,0.3199,0.3229,0.3229,0.3229,0.3228,0,0.3924,0.3876,0.3853,0.3775,0.3736,0.3693,0.3632,0.3599,0.3567,0.3524,0.3464,0.3404,0.3337,0.3318,0.3287,0.3246,0.3244,0.3226,0.3213,0.3213,0.3204,0.32,0.3232,0.3231,0.3231,0.323,0,0,0.3952,0.3845,0.3837,0.3801,0.3721,0.3682,0.3637,0.3573,0.3545,0.3489,0.3449,0.3374,0.3357,0.3317,0.3279,0.3253,0.324,0.3238,0.3236,0.324,0.3191,0.3204,0.3201,0.322,0.3219,0.3219,0.3196,0,0.3937,0.3855,0.3805,0.3742,0.3696,0.3648,0.3609,0.3555,0.3514,0.3468,0.3421,0.3369,0.3351,0.3326,0.3298,0.3248,0.3229,0.3249,0.3181,0.3179,0.3199,0.3196,0.321,0.3192,0.3192,0.3192,0.3191,0,0.3909,0.3855,0.3789,0.3714,0.3692,0.3658,0.3595,0.3552,0.3489,0.3461,0.3416,0.3379,0.3328,0.332,0.3248,0.3263,0.3232,0.3203,0.3201,0.3192,0.3185,0.3186,0.3185,0.3182,0.3185,0.3186,0.3186,0,0.3935,0.3846,0.3794,0.3764,0.3676,0.3653,0.3615,0.3553,0.3517,0.3461,0.3437,0.3377,0.3343,0.3296,0.3243,0.3242,0.3176,0.3164,0.315,0.3151,0.3137,0.3139,0.313,0.3119,0.312,0.312,0.312,0,0.3923,0.3884,0.3804,0.3772,0.3726,0.3669,0.3625,0.3583,0.3528,0.3487,0.3441,0.3403,0.3335,0.3288,0.3246,0.3192,0.3178,0.3152,0.3141,0.3156,0.3159,0.3134,0.3134,0.3119,0.3119,0.3119,0.3119,0,0.3944,0.3889,0.3829,0.3751,0.373,0.37,0.3632,0.3598,0.3555,0.3502,0.3486,0.3417,0.3359,0.3302,0.3224,0.3195,0.3142,0.3128,0.3164,0.3157,0.3146,0.3148,0.312,0.3113,0.3109,0.3109,0.3109,0,0.394,0.3908,0.3827,0.3796,0.3759,0.371,0.3674,0.3616,0.358,0.3507,0.3482,0.3421,0.3369,0.3279,0.3221,0.316,0.3144,0.3138,0.3134,0.315,0.3142,0.3145,0.3141,0.314,0.314,0.314,0.3141,0,0.3938,0.3912,0.3862,0.3802,0.376,0.371,0.3658,0.3635,0.3568,0.3529,0.347,0.343,0.335,0.329,0.3223,0.3182,0.315,0.3143,0.3136,0.315,0.3171,0.3159,0.3168,0.3143,0.3143,0.3143,0.3143,0.3143,0.3945,0.3915,0.3853,0.3798,0.3753,0.3706,0.367,0.3622,0.3572,0.3504,0.3473,0.3413,0.335,0.3257,0.3217,0.3169,0.316,0.3151,0.3148,0.3147,0.315,0.318,0.3157,0.3156,0.3156,0.3156,0.3156,0,0.394,0.3898,0.3848,0.3778,0.3734,0.3709,0.365,0.3615,0.3564,0.3509,0.3459,0.339,0.3331,0.3269,0.3206,0.3179,0.3163,0.3165,0.3166,0.3156,0.3161,0.3173,0.3179,0.3179,0.3179,0.3179,0.3179,0.3179,0.3933,0.388,0.3847,0.3771,0.3728,0.367,0.3639,0.3594,0.355,0.3476,0.3427,0.3387,0.3329,0.3262,0.3206,0.3189,0.3168,0.3174,0.3152,0.3158,0.3156,0.3155,0.3165,0.317,0.317,0.3151,0.3151,0.3151]}]]